Погода в Любани

Погода в Любани : погода сейчас, прогноз погоды и архив. Всё, что Вы хотите узнать о погоде в Любани!

Поиск расширенной информации на нашем сайте:

Другие новости

Новости СМИ2

Главная страница сайта

Новости сайта

03.07.2017

Напоминаем, что на нашем специализированном сайте Метеоцентр.Азия вы можете получить высокодетализированные автоматические прогнозы погоды по пунктам России, СНГ и мира в авиационном формате (включающие направление и скорость ветра, видимость, явления погоды, количество и форму облачности, нижнюю и верхнюю границу облачности).


Погода в Любани - сегодня

Время (UTC), дата Ветер
(°,м/с) 
Видим.   Явления Облачность Т
(°С)
Тd
(°С)
f(%) Тe
(°С)
Pmin
(гПа)
dP
(гПа)
Po
(мм)
O2
(г/м3)
Тmin Tmax R s Состояние
почвы
09 12.07.18 010 (С) н/о    н/о 
+24.6 +15.8 58 +34  1017.2  -0.7  759  277           
12 12.07.18 020 (С) н/о    н/о 
+27.8 +14.6 44 +35  1016.1  -1  759  275           
15 12.07.18 190 (Ю) н/о    н/о 
+22.6 +16.5 68 +34  1015.9  -0.4  758  279           
21 12.07.18 тихо ()   н/о    н/о 
+15.8 +13.2 85 +21  1015.6  -0.2  758  286           
00 13.07.18 тихо ()   н/о    н/о 
+13.1 +12.2 94 +17  1015.2  -0.5  758  289           
03 13.07.18 тихо ()   н/о    н/о 
+12.9 +12.2 96 +17  1015  -0.2  758  289  +12.3         
09 13.07.18 070 (В) н/о    н/о 
+26.8 +12.1 40 +31  1014  -0.3  757  276           
12 13.07.18 070 (В) н/о    н/о 
+28 +12 37 +32  1012.6  -0.6  756  274           
15 13.07.18 060 (СВ) н/о    н/о 
+26.1 +13.3 45 +32  1011.8  -0.8  755  275           
21 13.07.18 тихо ()   н/о    н/о 
+17.8 +15.7 88 +27  1012.5  0.2  756  283           
00 14.07.18 тихо ()   н/о    н/о 
+16.4 +14.8 90 +25  1012.2  -0.3  756  284           
03 14.07.18 тихо ()   н/о    н/о 
+17.1 +15.4 90 +26  1011.8  -0.4  755  283  +16         
09 14.07.18 080 (В) н/о    н/о 
+28 +14.3 43 +35  1011  -0.6  755  273           
12 14.07.18 350 (С) н/о    н/о 
+27.6 +15.9 49 +38  1009.6  -1.4  754  273           
15 14.07.18 070 (В) н/о    н/о 
+25.6 +16 55 +36  1009.4  -0.2  754  274           
21 14.07.18 тихо ()   н/о    н/о 
+17.4 +15.5 89 +27  1010.7  0.8  755  282           
00 15.07.18 тихо ()   н/о    н/о 
+14.2 +13.3 94 +20  1010.8  0.1  755  286           
03 15.07.18 тихо ()   н/о    н/о 
+16.5 +14.5 88 +24  1011.2  0.4  755  284  +13.4         
09 15.07.18 090 (В) н/о    н/о 
+27.3 +16.2 51 +38  1011.7  0.2  755  273           
12 15.07.18 030 (СВ) н/о    н/о 
+28.7 +15.7 45 +38  1011  -0.7  755  272           
15 15.07.18 020 (С) н/о    н/о 
+27.8 +15.3 47 +37  1011  755  273           
21 15.07.18 тихо ()   н/о    н/о 
+17.7 +17.2 97 +30  1013.2  0.9  756  282           
00 16.07.18 тихо ()   н/о    н/о 
+15.1 +14.7 97 +23  1013.9  0.6  757  286           
03 16.07.18 тихо ()   н/о    н/о 
+16.5 +16.1 97 +27  1014.3  0.4  757  284  +14.3         
09 16.07.18 040 (СВ) н/о    н/о 
+28.9 +14 40 +36  1014.1  0.1  757  273           
Время (UTC), дата Ветер
(°,м/с) 
Видим.   Явления Облачность Т
(°С)
Тd
(°С)
f(%) Тe
(°С)
Pmin
(гПа)
dP
(гПа)
Po
(мм)
O2
(г/м3)
Тmin Tmax R s Состояние
почвы

Для получения пояснительной информации подведите курсор к названию столбца.

ПОГОДА в Любани - архив

Всё, что Вы хотите узнать о погоде в Любани - удобно и подробно!

Выберите нужную дату (начиная с 1 января 2015* года) и нажмите кнопку "Найти".
Будут отображены архивные сводки погоды по пункту Любань, начиная с указанной даты.


Отображать данные в формате CSV (для использования в таблицах Excel)


Внимание! Наш архив погоды предназначен исключительно для личного некоммерческого использования в познавательных целях. Если Вам необходимы официальные справки о состоянии погоды (для производственных, юридических, коммерческих и т.п. целей), обращайтесь в органы Росгидромета.

*Примечание: данная дата относится к архиву по метеостанциям СССР (Россия, СНГ, Балтия).
Архив по метеостанциям Зарубежной Европы и Азии (кроме Китая) хранится 10 дней, по другим регионам земного шара (Китай, Африка, Америка, Австралия, Океания) - 1 день.

Любань - район местоположения метеостанции


Название, широта, долгота, высота метеостанции:
Любань 59.3°ш. 31.2°д. 39 м над ур. моря [Российская Федерация]

Дополнительная информация

В oтличие oт бoльшинства пoгoдных сайтoв мы публикуем пoдрoбную метеoинфoрмацию в детальнoм прoфессиoнальнoм фoрмате.

Характеристики температуры и влажнoсти вoздуха измеряются на высoте 2 м в тени вдали oт зданий и деревьев.
Скoрoсть ветра измеряется на высoте 10 м (на урoвне рoста челoвека скoрoсть ветра ниже в 1.5-2 раза). Если метеoстанция нахoдится в гoрoде или в лесу, тo скoрoсть ветра занижена на 2-4 м/с пo сравнению с oткрытым местoм. Скoрoсть ветра над акватoриями крупных рек и oзёр, а также на вершинах хoлмoв на 2-5 м/с выше, чем в oбычных услoвиях.
Атмoсфернoе давление в разных тoчках местнoсти мoжет значительнo oтличаться oт давления на метеoстанции, в зависимoсти oт услoвий рельефа (при пoдъёме на 10 м давление пoнижается примернo на 1 мм рт.ст.).